DMC3-FM2

Last updated on Fri Jul 11 2025 00:02:34 GMT+0000 (Coordinated Universal Time)

1 40716U 15032B 25191.56993090 .00000407 00000+0 53811-4 0 9990 2 40716 97.7005 65.5863 0008209 102.8727 257.3406 14.84982382539190
UTC large
Height (km)
Speed (km/s)
/
Latitude / Longitude
Inclination (degrees)
Orbital Period (minutes)
Azimuth
Elevation
Range (km)
Doppler Factor

Next 0 passes for location: London (51.5072 / 0.1276)

Sorry there are no passes over London.